Lid_Strength_Index
4 4 4 4 4 5 5 5 4 4 4 4 3 3 4 4 5 5 4 5 7 9 9 7 6 9 9 8 9 8 8 7 9 12 12 13 13 12 13 12 13 14 14 15 14 16 17 7 7 11 9 8 7 7
4 4 4 4 4 5 5 5 4 4 4 4 3 3 4 4 4 4 4 3 4 7 8 6 7 6 6 6 7 8 8 8 8 10 10 10 13 11 13 16 9 14 11 13 12 13 8 7 8 7 6 7 7 7
3 4 4 4 4 5 5 5 4 4 4 4 4 3 4 4 4 4 5 5 4 7 7 7 7 5 4 5 4 8 7 6 9 7 8 9 12 10 14 13 12 9 8 11 11 8 8 7 6 6 7 7 6 6
4 4 4 4 4 5 5 5 5 4 4 4 4 3 3 4 4 4 7 7 4 7 9 8 5 6 4 3 3 5 5 5 6 7 8 10 11 8 11 10 11 9 8 10 10 8 7 6 6 7 7 6 6 6
3 3 4 4 4 5 5 5 4 4 4 4 4 3 4 4 4 5 7 7 5 6 9 8 6 5 5 4 4 5 6 6 7 8 9 10 8 8 8 8 10 8 9 11 11 8 9 8 6 6 7 7 6 6
3 4 4 4 4 5 5 4 4 4 4 4 3 4 4 4 5 4 7 5 6 5 7 9 7 6 5 5 6 7 6 6 7 7 8 7 7 8 11 12 7 6 6 7 8 6 5 5 4 4 6 6 6 6
3 4 4 4 4 4 4 4 4 4 4 4 4 4 4 4 6 7 8 7 6 5 7 9 8 6 5 7 7 7 8 7 7 8 8 8 7 7 9 12 7 6 5 5 5 5 6 6 6 4 5 6 5 5
3 4 4 4 4 4 4 4 4 4 4 4 4 5 4 4 5 7 6 4 5 5 6 9 9 7 6 8 8 8 8 8 8 8 7 8 7 8 10 7 7 6 5 5 5 4 5 4 3 4 4 4 5 6
3 4 5 5 4 4 4 4 4 4 4 4 4 4 6 7 8 7 2 3 4 6 8 8 11 11 6 7 8 7 9 10 9 9 8 7 9 11 8 8 7 6 6 6 5 4 4 5 4 4 4 4 4 4
4 4 5 4 4 4 4 4 4 4 4 4 5 9 9 7 2 3 6 8 7 7 7 9 9 10 8 9 9 9 9 10 11 9 7 9 9 6 5 5 5 4 4 4 6 6 6 5 5 4 4 4 4 4
4 5 5 5 4 4 4 4 4 5 5 8 9 9 6 3 6 7 9 9 8 9 8 9 9 10 8 9 10 10 10 9 11 10 9 10 11 7 4 5 5 4 4 5 6 6 5 5 5 5 4 4 3 3
5 6 6 6 5 4 4 4 5 7 8 8 8 7 6 6 8 9 10 9 9 10 8 8 8 8 8 8 9 9 11 9 13 8 10 12 8 6 5 5 4 5 5 5 5 5 5 4 4 4 4 4 4 3
6 7 6 6 6 5 5 5 5 5 6 6 6 7 8 8 11 10 12 10 10 8 8 8 8 8 8 8 9 9 10 11 8 11 12 10 6 5 5 4 5 4 4 5 5 4 4 3 3 4 4 4 4 4
7 6 6 6 6 5 5 5 5 6 5 6 7 11 9 10 10 10 9 9 8 8 8 8 8 9 9 9 9 10 10 8 12 14 13 9 6 5 5 5 5 5 5 4 4 4 4 4 3 4 4 4 4 4
7 6 6 6 5 5 5 5 5 5 5 6 7 11 9 8 9 8 8 9 8 8 8 8 9 9 10 10 10 9 11 13 12 12 10 7 5 6 6 5 5 5 5 5 5 4 4 3 4 5 4 4 4 4
6 6 7 6 5 5 5 5 4 4 5 5 6 8 8 9 9 9 9 10 8 8 8 8 9 10 10 10 10 11 12 13 11 9 7 6 6 6 6 5 5 5 4 5 5 5 4 4 4 4 3 4 4 3
6 8 6 5 5 5 5 5 5 6 6 6 7 7 8 9 10 9 10 9 8 8 10 9 11 12 9 10 11 9 11 9 8 7 6 6 6 6 5 5 5 4 4 5 4 4 3 3 4 4 4 3 3 3
7 7 6 5 6 6 5 5 5 5 7 7 9 9 8 8 9 9 9 8 9 10 9 10 9 9 11 11 11 9 8 7 6 6 6 5 5 5 4 5 4 4 4 4 4 4 4 4 4 4 4 4 4 4
8 7 6 6 6 6 8 7 6 8 8 8 8 8 8 8 8 8 7 8 8 8 9 8 9 10 10 9 9 8 8 7 7 6 6 4 4 4 4 4 4 4 5 5 5 5 5 5 4 4 4 4 4 4
6 6 6 5 5 6 8 8 6 8 9 8 8 8 8 9 8 7 7 8 8 8 8 8 9 9 8 8 7 8 8 8 7 8 7 7 5 5 4 5 5 5 5 5 4 5 4 4 3 3 3 3 4 4
6 6 5 5 5 7 7 8 8 8 8 8 8 8 9 8 8 8 8 8 8 8 9 8 8 7 7 7 7 7 7 6 6 6 7 7 5 5 5 5 5 5 5 5 5 4 3 3 3 3 2 2 2 2
7 5 6 5 7 7 8 8 8 8 8 8 8 8 8 8 8 8 8 8 8 8 7 7 7 7 7 6 6 6 5 5 5 6 6 6 6 5 5 5 5 5 5 5 5 5 4 4 4 4 4 4 4 3
5 5 6 7 9 11 10 7 8 8 9 9 8 9 9 9 7 7 9 8 8 7 6 7 6 6 6 5 5 4 4 5 5 5 5 5 5 6 6 5 6 7 7 7 6 6 6 6 6 6 6 6 6 6
6 7 8 9 10 11 8 9 8 8 8 9 9 9 9 9 8 9 10 9 8 7 7 7 6 6 6 5 6 6 5 5 6 6 5 5 6 6 6 6 7 7 8 8 8 8 7 7 7 6 6 6 7 7
13 12 11 16 9 9 9 9 9 9 10 10 10 10 10 9 10 10 10 9 8 8 7 7 6 6 6 6 6 5 4 5 5 6 5 5 6 6 6 7 7 8 8 9 9 8 8 8 8 7 7 7 7 6
15 10 12 10 10 10 10 11 11 10 10 10 10 9 9 10 10 11 9 7 7 7 7 6 6 7 7 6 6 6 5 5 5 6 5 6 6 6 8 9 9 9 8 8 8 8 8 8 7 7 7 7 8 6
14 11 10 9 9 10 10 10 10 10 10 10 10 10 10 11 11 9 7 6 6 5 5 5 5 5 6 6 5 5 4 4 5 5 5 5 6 6 7 9 9 9 8 7 8 8 8 8 7 7 7 7 6 6
10 10 11 11 10 10 10 10 10 10 10 9 9 10 10 10 10 7 5 4 4 4 4 4 4 4 4 4 5 5 4 5 4 5 5 6 7 7 7 7 7 9 8 7 8 8 8 8 8 8 7 7 7 6
10 9 9 10 10 10 10 10 10 9 8 9 10 10 9 7 5 5 5 4 4 4 5 5 5 4 4 5 5 5 5 5 6 7 7 8 8 8 8 8 8 8 8 8 10 10 9 9 9 9 8 7 6 6
10 9 10 9 10 10 9 9 8 7 7 7 7 6 6 6 5 4 4 5 5 5 4 5 4 5 5 6 6 5 5 5 5 6 8 8 9 8 8 8 8 9 9 9 9 9 11 10 9 8 8 8 8 7
9 9 9 9 9 8 7 6 6 6 6 7 7 7 7 6 5 4 4 4 4 5 5 4 4 5 5 5 7 6 6 5 5 5 6 7 8 8 8 8 9 9 9 10 10 10 10 10 10 10 9 9 9 9
9 9 9 9 9 7 6 7 7 8 7 8 8 7 7 6 7 6 4 4 5 5 6 5 5 5 4 4 5 5 8 5 5 5 6 7 8 8 8 9 9 9 10 10 10 11 11 11 11 11 11 10 10 9
8 8 8 7 8 8 7 7 7 7 7 8 7 6 7 7 7 5 4 3 3 4 4 4 3 4 5 4 5 5 7 5 6 9 10 10 10 9 9 9 9 9 10 10 11 11 11 11 11 11 11 11 11 10